,,,PA_Meas_PMT16A,,PR_Meas_QMR101_102,,RH_Meas_QMH101,,SR_Meas_QMS101,,TA_Meas_QMH101,,GenWind,,GenWind,
date,time,status,PA,status,PR,status,RH,status,SR,status,TA,status,DirAvg,status,SpdAvg,
2009-06-18, 00:00:04,VALID,1005.09,VALID,0,VALID,93.9954,VALID,0,VALID,23.8787,VALID,358,VALID,0.501172,
2009-06-18, 00:01:04,VALID,1005.09,VALID,0,VALID,93.9878,VALID,0,VALID,23.8575,VALID,358,VALID,0.367188,
2009-06-18, 00:02:04,VALID,1005.1,VALID,0,VALID,93.9802,VALID,0,VALID,23.8575,VALID,358,VALID,0.332812,
2009-06-18, 00:03:04,VALID,1005.08,VALID,0,VALID,94.0031,VALID,0,VALID,23.838,VALID,358,VALID,0.428516,
2009-06-18, 00:04:04,VALID,1005.06,VALID,0,VALID,94.0259,VALID,0,VALID,23.8398,VALID,358,VALID,0.403125,
2009-06-18, 00:05:04,VALID,1005.06,VALID,0,VALID,94.0336,VALID,0,VALID,23.8203,VALID,358,VALID,0.365625,
2009-06-18, 00:06:04,VALID,1005.03,VALID,0,VALID,94.1099,VALID,0,VALID,23.8185,VALID,358,VALID,0.492969,
2009-06-18, 00:07:04,VALID,1005.03,VALID,0,VALID,94.1556,VALID,0,VALID,23.838,VALID,358,VALID,0.335547,
2009-06-18, 00:08:04,VALID,1004.97,VALID,0,VALID,94.2167,VALID,0,VALID,23.8575,VALID,358,VALID,0.353906,
2009-06-18, 00:09:04,VALID,1004.98,VALID,0,VALID,94.2014,VALID,0,VALID,23.8575,VALID,358,VALID,0.541016,
2009-06-18, 00:10:04,VALID,1004.96,VALID,0,VALID,94.148,VALID,0,VALID,23.838,VALID,358,VALID,0.451562,
2009-06-18, 00:11:04,VALID,1004.97,VALID,0,VALID,94.2167,VALID,0,VALID,23.8575,VALID,358,VALID,0.487109,
2009-06-18, 00:12:04,VALID,1004.93,VALID,0,VALID,94.1709,VALID,0,VALID,23.838,VALID,358,VALID,0.369531,
2009-06-18, 00:13:04,VALID,1004.94,VALID,0,VALID,94.1404,VALID,0,VALID,23.8593,VALID,358,VALID,0.374609,
2009-06-18, 00:14:04,VALID,1004.96,VALID,0,VALID,94.2319,VALID,0,VALID,23.8575,VALID,358,VALID,0.277734,
2009-06-18, 00:15:04,VALID,1004.91,VALID,0,VALID,94.1633,VALID,0,VALID,23.8787,VALID,358,VALID,0.363281,
2009-06-18, 00:16:04,VALID,1004.94,VALID,0,VALID,94.1556,VALID,0,VALID,23.8575,VALID,358,VALID,0.376563,
2009-06-18, 00:17:04,VALID,1004.88,VALID,0,VALID,94.1251,VALID,0,VALID,23.8787,VALID,358,VALID,0.403125,
2009-06-18, 00:18:04,VALID,1004.88,VALID,0,VALID,94.087,VALID,0,VALID,23.838,VALID,358,VALID,0.236328,
2009-06-18, 00:19:04,VALID,1004.85,VALID,0,VALID,94.0641,VALID,0,VALID,23.8185,VALID,358,VALID,0.428906,
2009-06-18, 00:20:04,VALID,1004.82,VALID,0,VALID,93.9954,VALID,0,VALID,23.7991,VALID,358,VALID,0.619531,
2009-06-18, 00:21:04,VALID,1004.8,VALID,0,VALID,93.9191,VALID,0,VALID,23.7407,VALID,358,VALID,0.533594,
2009-06-18, 00:22:04,VALID,1004.79,VALID,0,VALID,93.9191,VALID,0,VALID,23.723,VALID,358,VALID,0.571094,
2009-06-18, 00:23:04,VALID,1004.78,VALID,0,VALID,94.0717,VALID,0,VALID,23.7212,VALID,358,VALID,0.572266,
2009-06-18, 00:24:04,VALID,1004.77,VALID,0,VALID,94.1709,VALID,0,VALID,23.7212,VALID,358,VALID,0.611719,
2009-06-18, 00:25:04,VALID,1004.76,VALID,0,VALID,94.2167,VALID,0,VALID,23.7814,VALID,358,VALID,0.518359,
2009-06-18, 00:26:04,VALID,1004.76,VALID,0,VALID,94.1938,VALID,0,VALID,23.7601,VALID,358,VALID,0.696094,
2009-06-18, 00:27:04,VALID,1004.76,VALID,0,VALID,94.2014,VALID,0,VALID,23.7814,VALID,358,VALID,0.574609,
2009-06-18, 00:28:04,VALID,1004.72,VALID,0,VALID,94.1862,VALID,0,VALID,23.7814,VALID,358,VALID,0.564844,
2009-06-18, 00:29:04,VALID,1004.72,VALID,0,VALID,94.1709,VALID,0,VALID,23.7601,VALID,358,VALID,0.530859,
2009-06-18, 00:30:04,VALID,1004.71,VALID,0,VALID,94.1633,VALID,0,VALID,23.7425,VALID,358,VALID,0.456641,
2009-06-18, 00:31:04,VALID,1004.71,VALID,0,VALID,94.209,VALID,0,VALID,23.7407,VALID,358,VALID,0.412891,
2009-06-18, 00:32:04,VALID,1004.65,VALID,0,VALID,94.1938,VALID,0,VALID,23.7212,VALID,358,VALID,0.526953,
2009-06-18, 00:33:04,VALID,1004.64,VALID,0,VALID,94.1328,VALID,0,VALID,23.7017,VALID,357,VALID,0.598047,
2009-06-18, 00:34:04,VALID,1004.6,VALID,0,VALID,94.1404,VALID,0,VALID,23.661,VALID,357,VALID,0.566016,
2009-06-18, 00:35:04,VALID,1004.58,VALID,0,VALID,94.1328,VALID,0,VALID,23.6823,VALID,357,VALID,0.659766,
2009-06-18, 00:36:04,VALID,1004.55,VALID,0,VALID,94.1556,VALID,0,VALID,23.6628,VALID,357,VALID,0.571875,
2009-06-18, 00:37:04,VALID,1004.56,VALID,0,VALID,94.1862,VALID,0,VALID,23.6841,VALID,357,VALID,0.575781,
2009-06-18, 00:38:04,VALID,1004.54,VALID,0,VALID,94.2014,VALID,0,VALID,23.6628,VALID,357,VALID,0.507813,
2009-06-18, 00:39:04,VALID,1004.56,VALID,0,VALID,94.2472,VALID,0,VALID,23.6628,VALID,357,VALID,0.442187,
2009-06-18, 00:40:04,VALID,1004.5,VALID,0,VALID,94.2624,VALID,0,VALID,23.6628,VALID,357,VALID,0.4375,
2009-06-18, 00:41:04,VALID,1004.52,VALID,0,VALID,94.2777,VALID,0,VALID,23.6841,VALID,357,VALID,0.328906,
2009-06-18, 00:42:04,VALID,1004.5,VALID,0,VALID,94.2777,VALID,0,VALID,23.6628,VALID,357,VALID,0.304688,
2009-06-18, 00:43:04,VALID,1004.48,VALID,0,VALID,94.3082,VALID,0,VALID,23.6628,VALID,357,VALID,0.379297,
2009-06-18, 00:44:04,VALID,1004.44,VALID,0,VALID,94.3158,VALID,0,VALID,23.6823,VALID,357,VALID,0.430078,
2009-06-18, 00:45:04,VALID,1004.46,VALID,0,VALID,94.3311,VALID,0,VALID,23.7212,VALID,357,VALID,0.528906,
2009-06-18, 00:46:04,VALID,1004.42,VALID,0,VALID,94.3769,VALID,0,VALID,23.7212,VALID,357,VALID,0.589453,
2009-06-18, 00:47:04,VALID,1004.39,VALID,0,VALID,94.354,VALID,0,VALID,23.7212,VALID,357,VALID,0.592969,
2009-06-18, 00:48:04,VALID,1004.36,VALID,0,VALID,94.3769,VALID,0,VALID,23.7619,VALID,357,VALID,0.677734,
2009-06-18, 00:49:04,VALID,1004.34,VALID,0,VALID,94.3921,VALID,0,VALID,23.7796,VALID,352,VALID,0.639844,
2009-06-18, 00:50:04,VALID,1004.29,VALID,0,VALID,94.4074,VALID,0,VALID,23.8185,VALID,360,VALID,0.748828,
2009-06-18, 00:51:04,VALID,1004.24,VALID,0,VALID,94.3845,VALID,0,VALID,23.7796,VALID,360,VALID,0.598047,
2009-06-18, 00:52:04,VALID,1004.22,VALID,0,VALID,94.3158,VALID,0,VALID,23.7991,VALID,360,VALID,0.680859,
2009-06-18, 00:53:04,VALID,1004.18,VALID,0,VALID,94.2777,VALID,0,VALID,23.8203,VALID,360,VALID,0.563281,
2009-06-18, 00:54:04,VALID,1004.18,VALID,0,VALID,94.2396,VALID,0,VALID,23.7991,VALID,359,VALID,0.482031,
2009-06-18, 00:55:04,VALID,1004.15,VALID,0,VALID,94.3006,VALID,0,VALID,23.8167,VALID,360,VALID,0.676562,
2009-06-18, 00:56:04,VALID,1004.09,VALID,0,VALID,94.3082,VALID,0,VALID,23.8769,VALID,347,VALID,0.551172,
2009-06-18, 00:57:04,VALID,1004.07,VALID,0,VALID,94.3311,VALID,0,VALID,23.9353,VALID,352,VALID,0.6375,
2009-06-18, 00:58:04,VALID,1004.09,VALID,0,VALID,94.3464,VALID,0,VALID,23.9937,VALID,356,VALID,0.387109,
2009-06-18, 00:59:04,VALID,1004.03,VALID,0,VALID,94.3006,VALID,0,VALID,24.0326,VALID,356,VALID,0.110156,
2009-06-18, 01:00:04,VALID,1004.03,VALID,0,VALID,94.209,VALID,0,VALID,24.0929,VALID,356,VALID,0.374609,
2009-06-18, 01:01:04,VALID,1004.01,VALID,0,VALID,94.0488,VALID,0,VALID,24.091,VALID,356,VALID,0.202734,
2009-06-18, 01:02:04,VALID,1004,VALID,0,VALID,93.9344,VALID,0,VALID,24.1318,VALID,355,VALID,0.384375,
2009-06-18, 01:03:04,VALID,1004,VALID,0,VALID,93.9115,VALID,0,VALID,24.1689,VALID,290,VALID,0.407813,
2009-06-18, 01:04:04,VALID,1003.96,VALID,0,VALID,93.7742,VALID,0,VALID,24.2273,VALID,292,VALID,0.205469,
2009-06-18, 01:05:04,VALID,1003.97,VALID,0,VALID,93.4767,VALID,0.100563,VALID,24.206,VALID,350,VALID,0.358984,
2009-06-18, 01:06:04,VALID,1003.92,VALID,0,VALID,93.1868,VALID,0,VALID,24.1865,VALID,350,VALID,0.387891,
2009-06-18, 01:07:04,VALID,1003.89,VALID,0,VALID,93.1563,VALID,0,VALID,24.2681,VALID,350,VALID,0.00820312,
2009-06-18, 01:08:04,VALID,1003.88,VALID,0,VALID,93.0495,VALID,0,VALID,24.2857,VALID,353,VALID,0.415625,
2009-06-18, 01:09:04,VALID,1003.89,VALID,0,VALID,92.7138,VALID,0,VALID,24.2681,VALID,353,VALID,0.419141,
2009-06-18, 01:10:04,VALID,1003.86,VALID,0,VALID,92.5231,VALID,0,VALID,24.2078,VALID,353,VALID,0.476172,
2009-06-18, 01:11:04,VALID,1003.86,VALID,0,VALID,92.4697,VALID,0,VALID,24.1884,VALID,353,VALID,0.705469,
2009-06-18, 01:12:04,VALID,1003.85,VALID,0,VALID,92.3857,VALID,0,VALID,24.1494,VALID,354,VALID,0.339453,
2009-06-18, 01:13:04,VALID,1003.86,VALID,0,VALID,92.3323,VALID,0,VALID,24.1105,VALID,354,VALID,0.344922,
2009-06-18, 01:14:04,VALID,1003.87,VALID,0,VALID,92.4925,VALID,0,VALID,24.0716,VALID,354,VALID,0.30625,
2009-06-18, 01:15:04,VALID,1003.86,VALID,0,VALID,92.5688,VALID,0,VALID,24.0929,VALID,354,VALID,0.432813,
2009-06-18, 01:16:04,VALID,1003.85,VALID,0,VALID,92.5231,VALID,0,VALID,24.0326,VALID,354,VALID,0.357031,
2009-06-18, 01:17:04,VALID,1003.86,VALID,0,VALID,92.4697,VALID,0,VALID,23.9937,VALID,354,VALID,0.448828,
2009-06-18, 01:18:04,VALID,1003.88,VALID,0,VALID,92.5154,VALID,0,VALID,23.9742,VALID,354,VALID,0.301172,
2009-06-18, 01:19:04,VALID,1003.88,VALID,0,VALID,92.6451,VALID,0,VALID,23.9335,VALID,353,VALID,0.382031,
2009-06-18, 01:20:04,VALID,1003.87,VALID,0,VALID,92.8664,VALID,0,VALID,23.9742,VALID,353,VALID,0.296875,
2009-06-18, 01:21:04,VALID,1003.88,VALID,0,VALID,92.7901,VALID,0,VALID,23.9548,VALID,353,VALID,0.431641,
2009-06-18, 01:22:04,VALID,1003.89,VALID,0,VALID,92.6451,VALID,0,VALID,23.9159,VALID,353,VALID,0.382422,
2009-06-18, 01:23:04,VALID,1003.87,VALID,0,VALID,92.7443,VALID,0,VALID,23.9159,VALID,353,VALID,0.170703,
2009-06-18, 01:24:04,VALID,1003.87,VALID,0,VALID,92.8587,VALID,0,VALID,23.9371,VALID,353,VALID,0.349219,
2009-06-18, 01:25:04,VALID,1003.83,VALID,0,VALID,93.1715,VALID,0,VALID,23.9937,VALID,354,VALID,0.337891,
2009-06-18, 01:26:04,VALID,1003.85,VALID,0,VALID,93.0189,VALID,0,VALID,23.9937,VALID,354,VALID,0.497656,
2009-06-18, 01:27:04,VALID,1003.84,VALID,0,VALID,93.0418,VALID,0,VALID,24.0132,VALID,345,VALID,0.546484,
2009-06-18, 01:28:04,VALID,1003.84,VALID,0,VALID,93.1639,VALID,0,VALID,24.0716,VALID,348,VALID,0.522656,
2009-06-18, 01:29:04,VALID,1003.86,VALID,0,VALID,92.9961,VALID,0,VALID,24.1318,VALID,348,VALID,0.492969,
2009-06-18, 01:30:04,VALID,1003.86,VALID,0,VALID,92.9884,VALID,0,VALID,24.1494,VALID,347,VALID,0.371484,
2009-06-18, 01:31:04,VALID,1003.86,VALID,0,VALID,92.8358,VALID,0,VALID,24.1689,VALID,347,VALID,0.127734,
2009-06-18, 01:32:04,VALID,1003.87,VALID,0,VALID,92.5765,VALID,0,VALID,24.1884,VALID,347,VALID,0.323438,
2009-06-18, 01:33:04,VALID,1003.87,VALID,0,VALID,92.4925,VALID,0,VALID,24.2078,VALID,347,VALID,0.00429688,
2009-06-18, 01:34:04,VALID,1003.89,VALID,0,VALID,92.3247,VALID,0,VALID,24.2078,VALID,347,VALID,0.226953,
2009-06-18, 01:35:04,VALID,1003.9,VALID,0,VALID,92.1721,VALID,0,VALID,24.2097,VALID,347,VALID,0.217969,
2009-06-18, 01:36:04,VALID,1003.9,VALID,0,VALID,91.9967,VALID,0,VALID,24.1689,VALID,347,VALID,0.158984,
2009-06-18, 01:37:04,VALID,1003.9,VALID,0,VALID,91.9967,VALID,0,VALID,24.1689,VALID,347,VALID,0.408203,
2009-06-18, 01:38:04,VALID,1003.88,VALID,0,VALID,91.9204,VALID,0,VALID,24.13,VALID,347,VALID,0.394922,
2009-06-18, 01:39:04,VALID,1003.89,VALID,0,VALID,91.9204,VALID,0,VALID,24.1318,VALID,349,VALID,0.488281,
2009-06-18, 01:40:04,VALID,1003.9,VALID,0,VALID,91.9204,VALID,0,VALID,24.1105,VALID,349,VALID,0.396875,
2009-06-18, 01:41:04,VALID,1003.9,VALID,0,VALID,91.8059,VALID,0,VALID,24.0716,VALID,349,VALID,0.339453,
2009-06-18, 01:42:04,VALID,1003.91,VALID,0,VALID,91.8594,VALID,0,VALID,24.0539,VALID,349,VALID,0.273438,
2009-06-18, 01:43:04,VALID,1003.91,VALID,0,VALID,92.1187,VALID,0,VALID,24.0132,VALID,349,VALID,0.385156,
2009-06-18, 01:44:04,VALID,1003.9,VALID,0,VALID,92.2484,VALID,0,VALID,24.0345,VALID,349,VALID,0.339063,
2009-06-18, 01:45:04,VALID,1003.93,VALID,0,VALID,92.34,VALID,0,VALID,24.0132,VALID,349,VALID,0.466406,
2009-06-18, 01:46:04,VALID,1003.93,VALID,0,VALID,92.5231,VALID,0,VALID,24.0326,VALID,349,VALID,0.130859,
2009-06-18, 01:47:04,VALID,1003.92,VALID,0,VALID,92.6451,VALID,0,VALID,24.0503,VALID,349,VALID,0.00195313,
2009-06-18, 01:48:04,VALID,1003.88,VALID,0,VALID,92.6222,VALID,0,VALID,24.1105,VALID,349,VALID,0,
2009-06-18, 01:49:04,VALID,1003.89,VALID,0,VALID,92.5536,VALID,0,VALID,24.1513,VALID,349,VALID,0.0128906,
2009-06-18, 01:50:04,VALID,1003.88,VALID,0,VALID,92.7138,VALID,0,VALID,24.1494,VALID,349,VALID,0.148047,
2009-06-18, 01:51:04,VALID,1003.87,VALID,0,VALID,92.6909,VALID,0,VALID,24.2097,VALID,347,VALID,0.483984,
2009-06-18, 01:52:04,VALID,1003.87,VALID,0,VALID,92.4697,VALID,0,VALID,24.2291,VALID,349,VALID,0.580469,
2009-06-18, 01:53:04,VALID,1003.85,VALID,0,VALID,92.1264,VALID,0,VALID,24.1689,VALID,352,VALID,0.441406,
2009-06-18, 01:54:04,VALID,1003.85,VALID,0,VALID,92.1111,VALID,0,VALID,24.13,VALID,352,VALID,0.611328,
2009-06-18, 01:55:04,VALID,1003.86,VALID,0,VALID,92.2255,VALID,0.100563,VALID,24.13,VALID,352,VALID,0.646875,
2009-06-18, 01:56:04,VALID,1003.85,VALID,0,VALID,92.3095,VALID,0,VALID,24.1318,VALID,352,VALID,0.283984,
2009-06-18, 01:57:04,VALID,1003.83,VALID,0,VALID,92.4697,VALID,0,VALID,24.13,VALID,352,VALID,0.522266,
2009-06-18, 01:58:04,VALID,1003.83,VALID,0,VALID,92.462,VALID,0,VALID,24.13,VALID,352,VALID,0.689453,
2009-06-18, 01:59:04,VALID,1003.8,VALID,0,VALID,92.3857,VALID,0,VALID,24.1318,VALID,353,VALID,0.563281,
2009-06-18, 02:00:04,VALID,1003.78,VALID,0,VALID,92.2484,VALID,0,VALID,24.091,VALID,355,VALID,0.489844,
2009-06-18, 02:01:04,VALID,1003.78,VALID,0,VALID,92.1187,VALID,0,VALID,24.0539,VALID,355,VALID,0.567187,
2009-06-18, 02:02:04,VALID,1003.78,VALID,0,VALID,92.1264,VALID,0,VALID,23.9742,VALID,355,VALID,0.314844,
2009-06-18, 02:03:04,VALID,1003.76,VALID,0,VALID,92.2027,VALID,0,VALID,23.8964,VALID,355,VALID,0.337891,
2009-06-18, 02:04:04,VALID,1003.74,VALID,0,VALID,92.34,VALID,0,VALID,23.8769,VALID,355,VALID,0,
2009-06-18, 02:05:04,VALID,1003.71,VALID,0,VALID,92.5002,VALID,0,VALID,23.838,VALID,355,VALID,0.4875,
2009-06-18, 02:06:04,VALID,1003.69,VALID,0,VALID,92.5383,VALID,0,VALID,23.7991,VALID,355,VALID,0.3125,
2009-06-18, 02:07:04,VALID,1003.68,VALID,0,VALID,92.6833,VALID,0,VALID,23.7796,VALID,355,VALID,0.410937,
2009-06-18, 02:08:04,VALID,1003.66,VALID,0,VALID,92.8664,VALID,0,VALID,23.7601,VALID,354,VALID,0.399219,
2009-06-18, 02:09:04,VALID,1003.65,VALID,0,VALID,93.0189,VALID,0,VALID,23.8009,VALID,354,VALID,0.465234,
2009-06-18, 02:10:04,VALID,1003.66,VALID,0,VALID,93.1715,VALID,0,VALID,23.8009,VALID,353,VALID,0.503125,
2009-06-18, 02:11:04,VALID,1003.64,VALID,0,VALID,93.2554,VALID,0,VALID,23.8221,VALID,344,VALID,0.404687,
2009-06-18, 02:12:04,VALID,1003.67,VALID,0,VALID,93.3622,VALID,0,VALID,23.8398,VALID,346,VALID,0.312891,
2009-06-18, 02:13:04,VALID,1003.67,VALID,0,VALID,93.3775,VALID,0,VALID,23.8593,VALID,350,VALID,0.683984,
2009-06-18, 02:14:04,VALID,1003.67,VALID,0,VALID,93.2249,VALID,0,VALID,23.8167,VALID,346,VALID,0.564453,
2009-06-18, 02:15:04,VALID,1003.68,VALID,0,VALID,93.3241,VALID,0,VALID,23.8593,VALID,346,VALID,0.583203,
2009-06-18, 02:16:04,VALID,1003.67,VALID,0,VALID,93.2325,VALID,0,VALID,23.8398,VALID,348,VALID,0.543359,
2009-06-18, 02:17:04,VALID,1003.68,VALID,0,VALID,93.1944,VALID,0,VALID,23.8185,VALID,348,VALID,0.500781,
2009-06-18, 02:18:04,VALID,1003.69,VALID,0,VALID,93.2936,VALID,0,VALID,23.8593,VALID,348,VALID,0.562109,
2009-06-18, 02:19:04,VALID,1003.68,VALID,0,VALID,93.1791,VALID,0,VALID,23.8398,VALID,348,VALID,0.515234,
2009-06-18, 02:20:04,VALID,1003.66,VALID,0,VALID,93.08,VALID,0,VALID,23.7814,VALID,348,VALID,0.427344,
2009-06-18, 02:21:04,VALID,1003.66,VALID,0,VALID,93.3012,VALID,0,VALID,23.7796,VALID,348,VALID,0.453906,
2009-06-18, 02:22:04,VALID,1003.68,VALID,0,VALID,93.5606,VALID,0,VALID,23.8575,VALID,348,VALID,0.602734,
2009-06-18, 02:23:04,VALID,1003.67,VALID,0,VALID,93.4767,VALID,0,VALID,23.8575,VALID,348,VALID,0.399609,
2009-06-18, 02:24:04,VALID,1003.69,VALID,0,VALID,93.5072,VALID,0,VALID,23.9159,VALID,348,VALID,0.0183594,
2009-06-18, 02:25:04,VALID,1003.68,VALID,0,VALID,93.4767,VALID,0,VALID,23.9159,VALID,348,VALID,0,
2009-06-18, 02:26:04,VALID,1003.7,VALID,0,VALID,93.6369,VALID,0,VALID,23.9955,VALID,352,VALID,0.284766,
2009-06-18, 02:27:04,VALID,1003.7,VALID,0,VALID,93.675,VALID,0,VALID,24.0716,VALID,341,VALID,0.798828,
2009-06-18, 02:28:04,VALID,1003.69,VALID,0,VALID,93.5682,VALID,0,VALID,24.1318,VALID,337,VALID,0.726953,
2009-06-18, 02:29:04,VALID,1003.68,VALID,0,VALID,93.408,VALID,0,VALID,24.1884,VALID,349,VALID,0.0777344,
2009-06-18, 02:30:04,VALID,1003.67,VALID,0,VALID,93.2936,VALID,0,VALID,24.2486,VALID,352,VALID,0.929297,
2009-06-18, 02:31:04,VALID,1003.67,VALID,0,VALID,93.141,VALID,0,VALID,24.3265,VALID,355,VALID,0.502344,
2009-06-18, 02:32:04,VALID,1003.64,VALID,0,VALID,92.8435,VALID,0,VALID,24.3246,VALID,353,VALID,0.561328,
2009-06-18, 02:33:04,VALID,1003.62,VALID,0,VALID,92.5536,VALID,0,VALID,24.3654,VALID,348,VALID,0.422656,
2009-06-18, 02:34:04,VALID,1003.63,VALID,0,VALID,92.34,VALID,0,VALID,24.3228,VALID,348,VALID,0.325391,
2009-06-18, 02:35:04,VALID,1003.64,VALID,0,VALID,92.195,VALID,0,VALID,24.3636,VALID,348,VALID,0,
2009-06-18, 02:36:04,VALID,1003.65,VALID,0,VALID,92.0348,VALID,0,VALID,24.3636,VALID,348,VALID,0.439063,
2009-06-18, 02:37:04,VALID,1003.64,VALID,0,VALID,91.9585,VALID,0,VALID,24.383,VALID,352,VALID,0.715625,
2009-06-18, 02:38:04,VALID,1003.66,VALID,0,VALID,91.9128,VALID,0,VALID,24.4433,VALID,350,VALID,1.06719,
2009-06-18, 02:39:04,VALID,1003.67,VALID,0,VALID,91.7831,VALID,0,VALID,24.4609,VALID,352,VALID,0.748828,
2009-06-18, 02:40:04,VALID,1003.67,VALID,0,VALID,91.6229,VALID,0,VALID,24.5193,VALID,340,VALID,0.507422,
2009-06-18, 02:41:04,VALID,1003.69,VALID,0,VALID,91.2643,VALID,0,VALID,24.5796,VALID,340,VALID,0.139062,
2009-06-18, 02:42:04,VALID,1003.67,VALID,0,VALID,91.0888,VALID,0,VALID,24.599,VALID,351,VALID,0.525,
2009-06-18, 02:43:04,VALID,1003.66,VALID,0,VALID,91.0049,VALID,0,VALID,24.5972,VALID,345,VALID,0.55625,
2009-06-18, 02:44:04,VALID,1003.62,VALID,0,VALID,90.5167,VALID,0,VALID,24.599,VALID,345,VALID,0.554297,
2009-06-18, 02:45:04,VALID,1003.59,VALID,0,VALID,90.4633,VALID,0,VALID,24.5601,VALID,347,VALID,0.487891,
2009-06-18, 02:46:04,VALID,1003.63,VALID,0,VALID,91.0049,VALID,0,VALID,24.599,VALID,338,VALID,0.654688,
2009-06-18, 02:47:04,VALID,1003.61,VALID,0,VALID,90.7303,VALID,0,VALID,24.638,VALID,346,VALID,0.435547,
2009-06-18, 02:48:04,VALID,1003.59,VALID,0,VALID,90.5319,VALID,0,VALID,24.6964,VALID,346,VALID,0.000390625,
2009-06-18, 02:49:04,VALID,1003.58,VALID,0,VALID,90.4022,VALID,0,VALID,24.675,VALID,347,VALID,0.249219,
2009-06-18, 02:50:04,VALID,1003.6,VALID,0,VALID,90.3336,VALID,0,VALID,24.7353,VALID,353,VALID,0.625391,
2009-06-18, 02:51:04,VALID,1003.59,VALID,0,VALID,90.242,VALID,0,VALID,24.7548,VALID,351,VALID,0.680859,
2009-06-18, 02:52:04,VALID,1003.56,VALID,0,VALID,90.0666,VALID,0,VALID,24.8151,VALID,360,VALID,0.675781,
2009-06-18, 02:53:04,VALID,1003.54,VALID,0,VALID,89.4868,VALID,0,VALID,24.7529,VALID,360,VALID,0.593359,
2009-06-18, 02:54:04,VALID,1003.55,VALID,0,VALID,89.4944,VALID,0,VALID,24.6945,VALID,359,VALID,0.570703,
2009-06-18, 02:55:04,VALID,1003.54,VALID,0,VALID,89.8606,VALID,0,VALID,24.6964,VALID,356,VALID,0.663672,
2009-06-18, 02:56:04,VALID,1003.52,VALID,0,VALID,89.6088,VALID,0,VALID,24.6185,VALID,346,VALID,0.526172,
2009-06-18, 02:57:04,VALID,1003.53,VALID,0,VALID,90.1505,VALID,0,VALID,24.5777,VALID,346,VALID,0.366016,
2009-06-18, 02:58:04,VALID,1003.53,VALID,0,VALID,90.4022,VALID,0,VALID,24.5796,VALID,346,VALID,0.509375,
2009-06-18, 02:59:04,VALID,1003.5,VALID,0,VALID,90.387,VALID,0,VALID,24.5796,VALID,340,VALID,0.624219,
2009-06-18, 03:00:04,VALID,1003.5,VALID,0,VALID,90.3412,VALID,0,VALID,24.5777,VALID,341,VALID,0.173438,
2009-06-18, 03:01:04,VALID,1003.47,VALID,0,VALID,90.3031,VALID,0,VALID,24.5796,VALID,341,VALID,0,
2009-06-18, 03:02:04,VALID,1003.52,VALID,0,VALID,90.3793,VALID,0,VALID,24.5388,VALID,341,VALID,0,
2009-06-18, 03:03:04,VALID,1003.49,VALID,0,VALID,90.6387,VALID,0,VALID,24.5796,VALID,349,VALID,0.624609,
2009-06-18, 03:04:04,VALID,1003.51,VALID,0,VALID,90.6082,VALID,0,VALID,24.6185,VALID,355,VALID,0.755078,
2009-06-18, 03:05:04,VALID,1003.49,VALID,0,VALID,90.5243,VALID,0,VALID,24.6574,VALID,343,VALID,0.682813,
2009-06-18, 03:06:04,VALID,1003.49,VALID,0,VALID,90.3565,VALID,0,VALID,24.6574,VALID,353,VALID,0.507813,
2009-06-18, 03:07:04,VALID,1003.48,VALID,0,VALID,90.4099,VALID,0,VALID,24.6574,VALID,357,VALID,0.702344,
2009-06-18, 03:08:04,VALID,1003.49,VALID,0,VALID,90.2268,VALID,0,VALID,24.6361,VALID,352,VALID,0.846094,
2009-06-18, 03:09:04,VALID,1003.51,VALID,0,VALID,90.3031,VALID,0,VALID,24.6574,VALID,353,VALID,0.551562,
2009-06-18, 03:10:04,VALID,1003.5,VALID,0,VALID,90.2573,VALID,0,VALID,24.6574,VALID,357,VALID,0.344922,
2009-06-18, 03:11:04,VALID,1003.52,VALID,0,VALID,90.3412,VALID,0,VALID,24.6574,VALID,358,VALID,0.523047,
2009-06-18, 03:12:04,VALID,1003.51,VALID,0,VALID,90.3793,VALID,0,VALID,24.638,VALID,355,VALID,0.691016,
2009-06-18, 03:13:04,VALID,1003.51,VALID,0,VALID,90.4404,VALID,0,VALID,24.6574,VALID,354,VALID,0.387891,
2009-06-18, 03:14:04,VALID,1003.53,VALID,0,VALID,90.3946,VALID,0,VALID,24.6556,VALID,345,VALID,0.203516,
2009-06-18, 03:15:04,VALID,1003.54,VALID,0,VALID,90.3488,VALID,0,VALID,24.6166,VALID,345,VALID,0.0613281,
2009-06-18, 03:16:04,VALID,1003.55,VALID,0,VALID,90.5319,VALID,0,VALID,24.6574,VALID,345,VALID,0.540234,
2009-06-18, 03:17:04,VALID,1003.57,VALID,0,VALID,90.6082,VALID,0,VALID,24.6556,VALID,308,VALID,0.0820313,
2009-06-18, 03:18:04,VALID,1003.58,VALID,0,VALID,90.7303,VALID,0,VALID,24.6769,VALID,346,VALID,0.764063,
2009-06-18, 03:19:04,VALID,1003.56,VALID,0,VALID,90.5396,VALID,0,VALID,24.7159,VALID,344,VALID,0.302734,
2009-06-18, 03:20:04,VALID,1003.57,VALID,0,VALID,90.4099,VALID,0,VALID,24.6945,VALID,344,VALID,0,
2009-06-18, 03:21:04,VALID,1003.58,VALID,0,VALID,90.3565,VALID,0,VALID,24.7353,VALID,344,VALID,0,
2009-06-18, 03:22:04,VALID,1003.58,VALID,0,VALID,90.3717,VALID,0,VALID,24.7335,VALID,345,VALID,0.675391,
2009-06-18, 03:23:04,VALID,1003.57,VALID,0,VALID,90.2649,VALID,0,VALID,24.7335,VALID,334,VALID,0.403125,
2009-06-18, 03:24:04,VALID,1003.58,VALID,0,VALID,90.1734,VALID,0,VALID,24.7335,VALID,345,VALID,0.372656,
2009-06-18, 03:25:04,VALID,1003.57,VALID,0,VALID,90.0666,VALID,0,VALID,24.7548,VALID,345,VALID,0.0117188,
2009-06-18, 03:26:04,VALID,1003.56,VALID,0,VALID,89.975,VALID,0,VALID,24.7353,VALID,345,VALID,0.00429688,
2009-06-18, 03:27:04,VALID,1003.57,VALID,0,VALID,90.0971,VALID,0.100563,VALID,24.6926,VALID,345,VALID,0.462109,
2009-06-18, 03:28:04,VALID,1003.57,VALID,0,VALID,90.2268,VALID,0,VALID,24.714,VALID,345,VALID,0.362891,
2009-06-18, 03:29:04,VALID,1003.54,VALID,0,VALID,90.2802,VALID,0.100563,VALID,24.6926,VALID,350,VALID,0.673047,
2009-06-18, 03:30:04,VALID,1003.53,VALID,0,VALID,90.3412,VALID,0.100563,VALID,24.6926,VALID,345,VALID,0.5625,
2009-06-18, 03:31:04,VALID,1003.52,VALID,0,VALID,90.3641,VALID,0.100563,VALID,24.7121,VALID,345,VALID,0.385547,
2009-06-18, 03:32:04,VALID,1003.52,VALID,0,VALID,90.1963,VALID,0,VALID,24.7529,VALID,344,VALID,0.362891,
2009-06-18, 03:33:04,VALID,1003.52,VALID,0,VALID,90.0666,VALID,0.100563,VALID,24.6926,VALID,345,VALID,0.619141,
2009-06-18, 03:34:04,VALID,1003.55,VALID,0,VALID,90.1505,VALID,0.100563,VALID,24.6926,VALID,343,VALID,0.445313,
2009-06-18, 03:35:04,VALID,1003.54,VALID,0,VALID,90.3793,VALID,0,VALID,24.7335,VALID,352,VALID,0.601172,
2009-06-18, 03:36:04,VALID,1003.57,VALID,0,VALID,90.1734,VALID,0.100563,VALID,24.714,VALID,347,VALID,0.657812,
2009-06-18, 03:37:04,VALID,1003.55,VALID,0,VALID,90.181,VALID,0,VALID,24.714,VALID,352,VALID,0.274219,
2009-06-18, 03:38:04,VALID,1003.59,VALID,0,VALID,90.2649,VALID,0,VALID,24.714,VALID,352,VALID,0.464063,
2009-06-18, 03:39:04,VALID,1003.57,VALID,0,VALID,90.4099,VALID,0.100563,VALID,24.714,VALID,348,VALID,0.502344,
2009-06-18, 03:40:04,VALID,1003.54,VALID,0,VALID,90.2802,VALID,0.100563,VALID,24.714,VALID,352,VALID,0.398828,
2009-06-18, 03:41:04,VALID,1003.55,VALID,0,VALID,90.1505,VALID,0,VALID,24.6945,VALID,352,VALID,0.021875,
2009-06-18, 03:42:04,VALID,1003.55,VALID,0,VALID,90.1352,VALID,0,VALID,24.6342,VALID,352,VALID,0.00195313,
2009-06-18, 03:43:04,VALID,1003.54,VALID,0,VALID,90.1963,VALID,0,VALID,24.6361,VALID,352,VALID,0.0414063,
2009-06-18, 03:44:04,VALID,1003.5,VALID,0,VALID,90.2802,VALID,0.100563,VALID,24.5953,VALID,352,VALID,0.0078125,